Regional Weather Roundup
Issued by NWS

Home | Current Version | Previous Version | Text Only | Print | Product List | Glossary On
Versions: 1 2 3 4 5 6 7 8 9 10 11 12 13 14 15 16 17 18 19 20 21 22 23 24 25 26 27 28 29 30 31 32 33 34 35 36 37 38 39 40 41 42 43 44 45 46 47 48 49 50
000
ASUS43 KLMK 010410
RWRKY
KENTUCKY REGIONAL WEATHER ROUNDUP
NATIONAL WEATHER SERVICE LOUISVILLE KY
1200 AM EDT WED JUL 01 2015

NOTE "FAIR" INDICATES FEW OR NO CLOUDS BELOW 12,000 FEET
WITH NO SIGNIFICANT WEATHER AND/OR OBSTRUCTIONS TO VISIBILITY.

KYZ001>023-026-027-061>063-070>075-010500-
WESTERN AND SOUTH CENTRAL KENTUCKY

CITY           SKY/WX    TMP DP  RH WIND       PRES   REMARKS
PADUCAH        MOCLDY    73  68  84 SW5       29.92R
HENDERSON      CLEAR     72  66  83 SW6       29.89F
OWENSBORO      CLEAR     71  68  90 SW3       29.91F
HOPKINSVILLE   CLEAR     73  69  89 SW6       29.94R
BOWLING GREEN  CLEAR     75  67  76 SW5       29.94S
GLASGOW        CLEAR     69  69 100 CALM      29.95S
$$

KYZ024-025-028>034-038-045-046-053-010500-
NORTH CENTRAL KENTUCKY

CITY           SKY/WX    TMP DP  RH WIND       PRES   REMARKS
LOUISVILLE/SDF MOCLDY    73  62  68 SE7       29.90R
LOUISVILLE/LOU CLOUDY    70  61  73 E5        29.91R
FORT KNOX      CLEAR     69  66  88 SW6       29.89F
$$

KYZ035>037-039>044-047>052-055>060-089>105-010500-
NORTHEAST KENTUCKY

CITY           SKY/WX    TMP DP  RH WIND       PRES   REMARKS
LEXINGTON      LGT RAIN  64  62  93 SW9       29.93F FOG
COVINGTON      CLOUDY    64  62  93 S7        29.90R FOG
FRANKFORT      LGT RAIN  65  62  90 NW9G16    29.92S FOG
$$

KYZ054-064>069-076>088-106>120-010500-
SOUTHEAST KENTUCKY

CITY           SKY/WX    TMP DP  RH WIND       PRES   REMARKS
JACKSON        PTCLDY    60  58  92 VRB3      29.95S FOG
LONDON         PTCLDY    70  58  65 SE5       29.97F
SOMERSET       CLOUDY    68  68 100 CALM      29.97S
MIDDLESBORO    CLOUDY    66  66 100 CALM      29.99S FOG
MONTICELLO     CLEAR     67  67 100 CALM      29.99R
$$



USA.gov is the U.S. government's official web portal to all federal, state and local government web resources and services.